Location: Little Baddow
(51.7333°N, 0.5667°E)
Time: 23:26:54
(UTC+00:00)

SL-08 R/B - Visible Passes

Search period start: 15 February 2026 00:00
Search period end: 25 February 2026 00:00
Orbit: 942 x 1007 km, 82.9° (Epoch: 15 February)

Date Brightness Start Highest point End Pass type
(mag) Time Alt. Az. Time Alt. Az. Time Alt. Az.
15 Feb 5.8 06:00:51 10° SSE 06:06:48 45° E 06:12:43 10° NNE visible
15 Feb 6.2 18:36:01 10° NNW 18:41:29 35° W 18:46:53 10° SSW visible
16 Feb 7.6 04:44:19 10° ESE 04:47:32 15° ENE 04:50:45 10° NE visible
16 Feb 4.9 06:25:31 10° S 06:31:49 73° E 06:38:04 10° NNE visible
16 Feb 7.1 19:01:47 10° NNW 19:06:14 21° W 19:10:40 10° SW visible
17 Feb 6.9 05:07:19 10° SE 05:12:12 24° E 05:17:02 10° NNE visible
17 Feb 5.0 17:40:37 10° NNW 17:46:42 66° W 17:52:43 10° S visible
17 Feb 7.6 19:28:25 10° NW 19:30:51 13° WNW 19:33:16 10° W visible
18 Feb 6.1 05:31:15 10° SSE 05:37:01 39° E 05:42:44 10° NNE visible
18 Feb 6.0 18:06:02 10° NNW 18:11:41 40° W 18:17:16 10° SSW visible
19 Feb 7.7 04:15:29 10° E 04:17:51 12° ENE 04:20:13 10° NE visible
19 Feb 5.1 05:55:46 10° S 06:01:59 63° E 06:08:09 10° NNE visible
19 Feb 6.9 18:31:42 10° NNW 18:36:29 25° W 18:41:14 10° SW visible
20 Feb 7.1 04:37:59 10° SE 04:42:28 21° E 04:46:54 10° NE visible
20 Feb 4.5 06:20:47 10° SSW 06:27:06 82° W 06:33:22 10° N visible
20 Feb 7.5 18:57:57 10° NW 19:01:08 15° WNW 19:04:18 10° WSW visible
21 Feb 6.3 05:01:42 10° SSE 05:07:14 34° E 05:12:43 10° NNE visible
22 Feb 7.7 03:47:27 10° ENE 03:48:11 10° ENE 03:48:55 10° ENE visible
22 Feb 5.3 05:26:03 10° SSE 05:32:09 55° E 05:38:11 10° NNE visible
22 Feb 6.8 18:01:38 10° NNW 18:06:43 28° W 18:11:45 10° SW visible
23 Feb 7.2 04:08:44 10° ESE 04:12:44 18° ENE 04:16:42 10° NE visible
23 Feb 4.6 05:50:55 10° S 05:57:13 88° ESE 06:03:28 10° N visible
23 Feb 7.3 18:27:39 10° NW 18:31:24 17° WNW 18:35:09 10° WSW visible
24 Feb 6.5 04:32:11 10° SE 04:37:27 29° E 04:42:40 10° NNE visible
24 Feb 4.6 06:16:17 10° SSW 06:22:27 59° WNW 06:28:36 10° N visible
